Regional Weather Roundup
Issued by NWS

Home | Current Version | Previous Version | Graphics & Text | Print | Product List | Glossary On
Versions: 1 2 3 4 5 6 7 8 9 10 11 12 13 14 15 16 17 18 19 20 21 22 23 24 25 26 27 28 29 30 31 32 33 34 35 36 37 38 39 40 41 42 43 44 45 46 47 48 49 50
000
ASUS43 KLOT 150600
RWRIL

ILLINOIS REGIONAL WEATHER ROUNDUP
NATIONAL WEATHER SERVICE CHICAGO/ROMEOVILLE IL
100 AM CDT MON SEP 15 2014

NOTE: "FAIR" INDICATES FEW OR NO CLOUDS BELOW 12,000 FEET WITH NO
SIGNIFICANT WEATHER AND/OR OBSTRUCTIONS TO VISIBILITY.

* THESE STATIONS ARE NOT UNDER NWS QUALITY CONTROL. THEY ALSO MAY NOT
  REPORT WEATHER SUCH AS PRECIPITATION OR FOG.

ILZ001-002-007-009-015-016-024-150700-
NORTHWEST ILLINOIS

CITY           SKY/WX    TMP DP  RH WIND       PRES   REMARKS
MOLINE         MOCLDY    52  48  86 NE5       30.16F
6HR MIN TEMP:  51; 6HR MAX TEMP:  60;

STERLING*      PTCLDY    48  45  87 CALM      30.18S
$$

ILZ003-004-008-010-011-017-018-150700-
NORTH CENTRAL ILLINOIS

CITY           SKY/WX    TMP DP  RH WIND       PRES   REMARKS
ROCKFORD       NOT AVBL
FREEPORT*      PTCLDY    50  46  87 S3        30.19S
ROCHELLE*      PTCLDY    45  43  93 CALM      30.19R
$$

ILZ005-006-012>014-019>023-150700-
NORTHEAST ILLINOIS

CITY           SKY/WX    TMP DP  RH WIND       PRES   REMARKS
CHICAGO-OHARE  PTCLDY    51  46  83 S3        30.18S
6HR MIN TEMP:  50; 6HR MAX TEMP:  61;

CHICAGO-MIDWAY PTCLDY    55  47  74 S5        30.18S
6HR MIN TEMP:  54; 6HR MAX TEMP:  64;

AURORA         PTCLDY    47  43  86 CALM      30.19R
6HR MIN TEMP:  46; 6HR MAX TEMP:  61;

LANSING*       CLEAR     49  47  92 CALM      30.20R
WAUKEGAN       MOCLDY    53  45  74 SW3       30.16S
6HR MIN TEMP:  49; 6HR MAX TEMP:  57;

DUPAGE AIRPORT PTCLDY    49  46  90 CALM      30.18R
6HR MIN TEMP:  48; 6HR MAX TEMP:  60;

WHEELING       PTCLDY    50  46  86 SE3       30.19S
6HR MIN TEMP:  50; 6HR MAX TEMP:  63;

NORTHERLY ISL    N/A     58  44  60 SW5         N/A
$$

LMZ740>746-150700-
SOUTHERN LAKE MICHIGAN

STATION/POSITION SKY/WX   TEMP    WIND        PRES    VSBY  WAVE
                          AIR SEA DIR/SP/G                  HT/PER
                          (F)     (DEG/KT/KT) (MB)    (MI)  (FT/S)
SOUTHERN BUOY              64 64  230/ 14/ 16 1021.5F         1/ 3
WAUKEGAN HARBOR            56     260/  7/  9   N/A
HARRISON CRIB              60     190/  6/  7   N/A
BURNHAM HARBOR             58     210/  3/  5   N/A
CALUMET HARBOR             56     210/  3/  4 1020.8F
MICHIGAN CITY              56     140/  7/  9   N/A
MICHIGAN CITY 6N           59 64  190/  6/  8   N/A           1/ 2
ST. JOSEPH                 61 67  170/  8/ 10   N/A           1/ 2
$$

ILZ025>027-034>036-040-047-049-050-058-095>099-150700-
WEST-CENTRAL ILLINOIS

CITY           SKY/WX    TMP DP  RH WIND       PRES   REMARKS
QUINCY         CLOUDY    59  49  69 CALM      30.15F
GALESBURG*     MOCLDY    52  49  87 CALM      30.16F
MACOMB*        CLOUDY    50  49  97 CALM      30.18S
$$

ILZ028>032-037-038-041>044-048-051>054-059>061-150700-
CENTRAL ILLINOIS

CITY           SKY/WX    TMP DP  RH WIND       PRES   REMARKS
DECATUR        CLEAR     52  45  77 CALM      30.20S
PEORIA         MOCLDY    54  49  83 NE3       30.18S
6HR MIN TEMP:  53; 6HR MAX TEMP:  63; 6HR PCP: TRACE;

SPRINGFIELD    CLEAR     50  47  89 CALM      30.18F
6HR MIN TEMP:  49; 6HR MAX TEMP:  65; 6HR PCP: TRACE;

TAYLORVILLE    NOT AVBL
$$

ILZ033-039-045-046-055>057-062-063-150700-
EAST-CENTRAL ILLINOIS

CITY           SKY/WX    TMP DP  RH WIND       PRES   REMARKS
CHAMPAIGN      CLEAR     48  45  89 SW3       30.21R
MATTOON        CLEAR     54  47  77 SW6       30.20R
$$

ILZ079-100>102-150700-
SOUTHWEST ILLINOIS

CITY           SKY/WX    TMP DP  RH WIND       PRES   REMARKS
ALTON          CLEAR     50  48  94 CALM      30.18S
CAHOKIA*       PTCLDY    54  50  86 SE3       30.17F
SPARTA*        PTCLDY    53  50  87 SE3       30.20S
$$

ILZ064>066-069>071-074>076-080>082-084>086-088>090-092>094-150700-
SOUTH-CENTRAL ILLINOIS

CITY           SKY/WX    TMP DP  RH WIND       PRES   REMARKS
CARBONDALE     CLEAR     51  49  92 CALM      30.20S
6HR MIN TEMP:  50; 6HR MAX TEMP:  64;

MT. VERNON     CLEAR     48  45  87 CALM      30.20S
$$

ILZ067-068-072-073-078-083-087-091-150700-
SOUTHEAST ILLINOIS

CITY           SKY/WX    TMP DP  RH WIND       PRES   REMARKS
LAWRENCEVILLE  CLEAR     49  48  97 CALM      30.20F
HARRISBURG*    CLEAR     51  51 100 CALM      30.22S
ROBINSON*      CLEAR     48  47  99 CALM      30.20F
$$

ABBREVIATIONS USED IN REMARKS
   TC - TEMPERATURE IN CELSIUS
  WCI - WIND CHILL INDEX
   HX - HEAT INDEX
  VSB - VISIBILITY
$$




USA.gov is the U.S. government's official web portal to all federal, state and local government web resources and services.